Amalon, Greece

10:51 PM EET on December 10, 2016 (GMT +0200)
Amalon

Weather History for WLGMK - June, 2013

Change the Weather History Date:

Tuesday, June 11, 2013

  Actual Average Record
Temperature  
Mean Temperature 76 °F -  
Max Temperature 84 °F - - ()
Min Temperature 69 °F - - ()
Cooling Degree Days 12    
Growing Degree Days 26 (Base 50)    
Moisture  
Dew Point 58 °F    
Average Humidity 53    
Maximum Humidity 83    
Minimum Humidity 37    
Precipitation  
Precipitation 0.00 in - - ()
Sea Level Pressure  
Sea Level Pressure 29.72 in    
Wind  
Wind Speed 10 mph ()    
Max Wind Speed 17 mph    
Max Gust Speed -    
Visibility 6.2 miles    
Events      
T = Trace of Precipitation, MM = Missing Value Source: Averaged Metar Reports

Daily Weather History Graph

Daily Weather History Graph

Search for Another Location

Airport or City:

Trip Planner

Search our weather history database for the weather conditions in past years. The results will help you decide how hot, cold, wet, or windy it might be!

Date:

Astronomy

Jun. 11, 2013 Rise Set
Actual Time 5:54 AM EEST 8:37 PM EEST
Civil Twilight 5:23 AM EEST 9:08 PM EEST
Nautical Twilight 4:44 AM EEST 9:47 PM EEST
Astronomical Twilight 4:00 AM EEST 10:30 PM EEST
Moon 8:17 AM EEST (6/11) 10:31 PM EEST (6/11)
Length of Visible Light 15h 45m
Length of Day
14h 43m
Waxing Crescent, 7% of the Moon is Illuminated
Jun 11
Waxing Crescent
Jun 16
First Quarter
Jun 23
Full
Jun 30
Last Quarter
Jul 8
New

Hourly Weather History & Observations

Time (EEST) Temp. Heat Index Dew Point Humidity Pressure Visibility Wind Dir Wind Speed Gust Speed Precip Events Conditions
4:50 AM 69.8 °F - 64.4 °F 83% 29.83 in 6.2 mi NW 4.6 mph - N/A   Scattered Clouds
5:50 AM 69.8 °F - 62.6 °F 78% 29.80 in 6.2 mi NE 13.8 mph - N/A   Scattered Clouds
6:20 AM 69.8 °F - 60.8 °F 73% 29.80 in 6.2 mi NE 11.5 mph - N/A   Scattered Clouds
6:50 AM 71.6 °F - 60.8 °F 69% 29.80 in 6.2 mi ENE 8.1 mph - N/A   Scattered Clouds
7:20 AM 71.6 °F - 60.8 °F 69% 29.77 in 6.2 mi NE 11.5 mph - N/A   Scattered Clouds
7:50 AM 71.6 °F - 59.0 °F 64% 29.77 in 6.2 mi ENE 9.2 mph - N/A   Scattered Clouds
8:20 AM 73.4 °F - 59.0 °F 61% 29.77 in 6.2 mi East 9.2 mph - N/A   Scattered Clouds
8:50 AM 75.2 °F - 57.2 °F 53% 29.77 in 6.2 mi ESE 11.5 mph - N/A   Scattered Clouds
9:20 AM 75.2 °F - 57.2 °F 53% 29.74 in 6.2 mi ESE 13.8 mph - N/A   Scattered Clouds
9:50 AM 77.0 °F - 57.2 °F 50% 29.74 in 6.2 mi ESE 17.3 mph - N/A   Scattered Clouds
10:20 AM 77.0 °F - 59.0 °F 54% 29.77 in - ESE 13.8 mph - N/A   Clear
10:50 AM 77.0 °F - 57.2 °F 50% 29.74 in - ESE 17.3 mph - N/A   Clear
11:20 AM 77.0 °F - 57.2 °F 50% 29.74 in - ESE 17.3 mph - N/A   Clear
11:50 AM 78.8 °F - 59.0 °F 51% 29.74 in - ESE 16.1 mph - N/A   Clear
12:20 PM 78.8 °F - 57.2 °F 47% 29.74 in - East 13.8 mph - N/A   Clear
12:50 PM 78.8 °F - 57.2 °F 47% 29.71 in - East 15.0 mph - N/A   Clear
1:20 PM 80.6 °F 80.8 °F 57.2 °F 45% 29.71 in - East 13.8 mph - N/A   Clear
1:50 PM 82.4 °F 82.0 °F 57.2 °F 42% 29.71 in - East 10.4 mph - N/A   Clear
2:20 PM 82.4 °F 82.0 °F 57.2 °F 42% 29.71 in - East 11.5 mph - N/A   Clear
2:50 PM 84.2 °F 83.0 °F 55.4 °F 37% 29.71 in - East 12.7 mph - N/A   Clear
3:20 PM 84.2 °F 83.5 °F 57.2 °F 40% 29.71 in - East 11.5 mph - N/A   Clear
3:50 PM 82.4 °F 82.0 °F 57.2 °F 42% 29.71 in - East 12.7 mph - N/A   Clear
4:20 PM 82.4 °F 81.7 °F 55.4 °F 39% 29.68 in - East 12.7 mph - N/A   Clear
4:50 PM 82.4 °F 81.7 °F 55.4 °F 39% 29.68 in - East 15.0 mph - N/A   Clear
5:20 PM 82.4 °F 81.7 °F 55.4 °F 39% 29.65 in - ESE 12.7 mph - N/A   Clear
5:50 PM 80.6 °F 80.8 °F 57.2 °F 45% 29.65 in - East 11.5 mph - N/A   Clear
6:20 PM 78.8 °F - 57.2 °F 47% 29.65 in - East 12.7 mph - N/A   Clear
6:50 PM 77.0 °F - 59.0 °F 54% 29.65 in - East 12.7 mph - N/A   Clear
7:20 PM 77.0 °F - 59.0 °F 54% 29.65 in - East 9.2 mph - N/A   Clear
7:50 PM 77.0 °F - 59.0 °F 54% 29.65 in - East 9.2 mph - N/A   Clear
8:20 PM 77.0 °F - 59.0 °F 54% 29.65 in - ESE 9.2 mph - N/A   Clear
8:50 PM 73.4 °F - 60.8 °F 65% 29.65 in - ESE 8.1 mph - N/A   Clear